Content
SEND FEEDBACK

Daily
Averages
Monthly
Summary
Netherlands

AMSTERDAM, NETHERLANDS


Home > Europe > Netherlands
Elevation: 7 feet     Latitude: 52 18N     Longitude: 004 46E

WEATHER
 
SELECT A DAY
Number of Records: 302,132;   Date Range: 7/1/96 - 7/28/14
 
SHARE

PRINT THIS DATA

[ ← Previous Day ]
WEATHER ALMANAC - SEPTEMBER 21, 2013
[ Next Day → ]
[ °C ]   °F
Weather ElementAverageHighLow
Temperature57.5 °F64.4 °F (3:25 pm)46.4 °F (12:55 am)
Dewpoint52.1 °F55.4 °F (11:25 pm)46.4 °F (12:55 am)
Humidity82.4 %100 % (12:55 am)57 % (5:00 pm)
Barometer30.25 in30.31 in (11:00 pm)30.18 in (12:55 am)
Wind Speed7.4 mph12.7 mph (11:55 am)
Weather ElementAverage
Visibility7 mi
Wind DirectionSSW (194.1 °)

Weather ElementTotal
Precipitation---
Heating Degree Days9.6 (Base 65)
Growing Degree Days5.4 (Base 50)
Averaged from 54 records on September 21, 2013
WEATHER CONDITIONS BREAKOUT
WIND DIRECTION BREAKOUT
WEATHER BY HOUR - SEPTEMBER 21, 2013
[ °C ]   °F
Local TimeTemperatureDewpointHumidityBarometerVisibilityWind DirectionWind SpeedGust SpeedPrecipitationEventsConditions
12:55 AM46.4 °F46.4 °F100 %30.18 in6.2 miSW (220°)4.6 mphPartly Cloudy
1:25 AM46.4 °F46.4 °F100 %30.18 in6.2 miSSW (210°)4.6 mphPartly Cloudy
1:55 AM50.0 °F48.2 °F94 %30.18 in6.2 miSSW (210°)4.6 mphScattered Clouds
2:00 AM48.0 °F47.0 °F93 %30.21 in12.0 miSSW (210°)4.5 mphPartly Cloudy
2:25 AM50.0 °F48.2 °F94 %30.18 in6.2 miSSW (200°)3.5 mphMostly Cloudy
2:55 AM50.0 °F48.2 °F94 %30.21 in6.2 miESE (110°)2.3 mphMostly Cloudy
3:25 AM51.8 °F50.0 °F94 %30.21 in6.2 miSSW (200°)3.5 mphMostly Cloudy
3:55 AM51.8 °F50.0 °F94 %30.21 in6.2 miSSE (160°)1.2 mphMostly Cloudy
4:25 AM51.8 °F50.0 °F94 %30.21 in6.2 miSouth (180°)4.6 mphMostly Cloudy
4:55 AM53.6 °F51.8 °F94 %30.21 in6.2 miSouth (190°)4.6 mphOvercast
5:25 AM53.6 °F51.8 °F94 %30.21 in6.2 miVariable2.3 mphOvercast
5:55 AM53.6 °F51.8 °F94 %30.21 in6.2 miSSE (160°)3.5 mphFogShallow Fog
6:25 AM53.6 °F51.8 °F94 %30.21 in6.2 miSE (140°)3.5 mphFogShallow Fog
6:55 AM53.6 °F51.8 °F94 %30.21 in6.2 miSouth (170°)4.6 mphMostly Cloudy
7:25 AM53.6 °F51.8 °F94 %30.21 in6.2 miSSE (160°)4.6 mphMostly Cloudy
7:55 AM53.6 °F53.6 °F100 %30.21 in6.2 miSouth (170°)4.6 mphMostly Cloudy
8:00 AM54.0 °F53.0 °F95 %30.24 in8.0 miSSE (160°)4.5 mphPartly Cloudy
8:25 AM55.4 °F53.6 °F94 %30.21 in6.2 miSouth (170°)4.6 mphMostly Cloudy
8:55 AM55.4 °F53.6 °F94 %30.24 in6.2 miSouth (170°)4.6 mphMostly Cloudy
9:25 AM55.4 °F53.6 °F94 %30.24 in6.2 miSouth (180°)6.9 mphMostly Cloudy
9:55 AM55.4 °F51.8 °F88 %30.24 in6.2 miSouth (180°)6.9 mphMostly Cloudy
10:25 AM57.2 °F51.8 °F82 %30.24 in6.2 miSouth (190°)5.8 mphMostly Cloudy
10:55 AM57.2 °F51.8 °F82 %30.27 in6.2 miSSW (200°)9.2 mphMostly Cloudy
11:00 AM58.0 °F52.0 °F76 %30.28 in11.0 miSSW (200°)8.9 mphOvercast
11:25 AM59.0 °F53.6 °F82 %30.27 in6.2 miSSW (200°)9.2 mphPartly Cloudy
11:55 AM59.0 °F53.6 °F82 %30.27 inSSW (200°)12.7 mphClear
12:25 PM60.8 °F51.8 °F72 %30.27 in6.2 miSSW (200°)11.5 mphMostly Cloudy
12:55 PM60.8 °F51.8 °F72 %30.27 in6.2 miSSW (200°)12.7 mphMostly Cloudy
1:25 PM60.8 °F51.8 °F72 %30.27 in6.2 miSSW (210°)11.5 mphMostly Cloudy
1:55 PM60.8 °F51.8 °F72 %30.27 in6.2 miSW (220°)11.5 mphMostly Cloudy
2:00 PM61.0 °F53.0 °F68 %30.29 in15.0 miSSW (210°)11.2 mphPartly Cloudy
2:25 PM62.6 °F53.6 °F72 %30.27 in6.2 miSW (220°)11.5 mphMostly Cloudy
2:55 PM62.6 °F53.6 °F72 %30.27 in6.2 miSW (230°)11.5 mphScattered Clouds
3:25 PM64.4 °F53.6 °F68 %30.27 in6.2 miSW (230°)10.4 mphScattered Clouds
3:55 PM64.4 °F53.6 °F68 %30.27 in6.2 miSW (230°)10.4 mphScattered Clouds
4:25 PM64.4 °F51.8 °F64 %30.27 in6.2 miSW (220°)11.5 mphScattered Clouds
4:55 PM62.6 °F51.8 °F68 %30.27 in6.2 miSSW (210°)11.5 mphPartly Cloudy
5:00 PM64.0 °F53.0 °F57 %30.29 in17.0 miSSW (210°)11.2 mphPartly Cloudy
5:25 PM62.6 °F51.8 °F68 %30.27 in6.2 miSSW (200°)11.5 mphPartly Cloudy
5:55 PM62.6 °F51.8 °F68 %30.27 in6.2 miSSW (210°)10.4 mphMostly Cloudy
6:25 PM62.6 °F53.6 °F72 %30.27 in6.2 miSSW (200°)10.4 mphMostly Cloudy
6:55 PM62.6 °F53.6 °F72 %30.27 in6.2 miWSW (240°)9.2 mphPartly Cloudy
7:25 PM60.8 °F53.6 °F77 %30.27 in6.2 miSW (220°)6.9 mphPartly Cloudy
7:55 PM60.8 °F53.6 °F77 %30.27 in6.2 miSSW (210°)6.9 mphMostly Cloudy
8:00 PM60.0 °F53.0 °F70 %30.29 in14.0 miSSW (210°)6.7 mphPartly Cloudy
8:25 PM59.0 °F51.8 °F77 %30.27 in6.2 miSW (220°)6.9 mphMostly Cloudy
8:55 PM60.8 °F51.8 °F72 %30.27 in6.2 miSSW (210°)8.1 mphMostly Cloudy
9:25 PM60.8 °F53.6 °F77 %30.27 in6.2 miSSW (200°)8.1 mphMostly Cloudy
9:55 PM59.0 °F53.6 °F82 %30.27 in6.2 miSouth (190°)6.9 mphMostly Cloudy
10:25 PM59.0 °F53.6 °F82 %30.27 in6.2 miSouth (190°)6.9 mphMostly Cloudy
10:55 PM59.0 °F53.6 °F82 %30.30 in6.2 miSSW (210°)5.8 mphOvercast
11:00 PM59.0 °F54.0 °F80 %30.31 in8.0 miSW (220°)6.7 mphOvercast
11:25 PM59.0 °F55.4 °F88 %30.30 in6.2 miSW (220°)6.9 mphOvercast
11:55 PM59.0 °F55.4 °F88 %30.30 in6.2 miSSW (200°)8.1 mphOvercast
Hourly data recorded from EHAM, located miles away from Amsterdam, Netherlands







STORIES FROM OUR PARTNERS